EN

Hourly Weather Alpe d'Arogno

Today, 21 January, Thursday

Time Temperature Precipitation Wind Pressure Humidity
00:00 +2°C° 0.5 mm 0 mps 706 mmHg 97%
01:00 +3°C° 0 mm 1 mps 705 mmHg 97%
02:00 +3°C° 0.6 mm 1 mps 705 mmHg 97%
03:00 +2°C° 0.6 mm 0 mps 705 mmHg 97%
04:00 +2°C° 0.6 mm 0 mps 704 mmHg 97%
05:00 +2°C° 1 mm 0 mps 704 mmHg 97%
06:00 +2°C° 1 mm 0 mps 705 mmHg 97%
07:00 +3°C° 0 mm 1 mps 705 mmHg 97%
08:00 +3°C° 0.5 mm 1 mps 705 mmHg 97%
09:00 +4°C° 0.5 mm 1 mps 705 mmHg 96%
10:00 +4°C° 0.5 mm 1 mps 704 mmHg 96%
11:00 +4°C° 0.6 mm 1 mps 704 mmHg 96%
12:00 +3°C° 0.6 mm 0 mps 704 mmHg 96%
13:00 +3°C° 0.6 mm 0 mps 703 mmHg 96%
14:00 +3°C° 0.5 mm 0 mps 703 mmHg 97%
15:00 +3°C° 0.5 mm 0 mps 703 mmHg 97%
16:00 +4°C° 0.5 mm 1 mps 702 mmHg 97%
17:00 +4°C° 0.9 mm 1 mps 702 mmHg 97%
18:00 +4°C° 0.9 mm 1 mps 702 mmHg 98%
19:00 +4°C° 0.9 mm 1 mps 702 mmHg 98%
20:00 +4°C° 1.6 mm 1 mps 701 mmHg 98%
21:00 +4°C° 1.6 mm 1 mps 701 mmHg 98%
22:00 +4°C° 1.6 mm 1 mps 700 mmHg 98%
23:00 +4°C° 2.3 mm 1 mps 700 mmHg 98%

Tomorrow, 22 January, Friday

Time Temperature Precipitation Wind Pressure Humidity
00:00 +4°C° 2.3 mm 1 mps 699 mmHg 98%
01:00 +4°C° 2.3 mm 1 mps 698 mmHg 98%
02:00 +4°C° 1.6 mm 1 mps 698 mmHg 98%
03:00 +3°C° 1.6 mm 0 mps 697 mmHg 98%
04:00 +3°C° 1.6 mm 0 mps 697 mmHg 98%
05:00 +3°C° 0.7 mm 0 mps 697 mmHg 98%
06:00 +3°C° 0.7 mm 0 mps 697 mmHg 98%
07:00 +3°C° 0.7 mm 0 mps 697 mmHg 98%
08:00 +3°C° 0.1 mm 0 mps 696 mmHg 98%
09:00 +3°C° 0.1 mm 0 mps 696 mmHg 97%
10:00 +4°C° 0.1 mm 0 mps 696 mmHg 97%
11:00 +5°C° 0.1 mm 1 mps 695 mmHg 96%
12:00 +5°C° 0.1 mm 1 mps 694 mmHg 95%
13:00 +6°C° 0.1 mm 1 mps 694 mmHg 94%
14:00 +5°C° 1.1 mm 1 mps 693 mmHg 95%
15:00 +5°C° 1.1 mm 1 mps 692 mmHg 97%
16:00 +4°C° 1.1 mm 0 mps 691 mmHg 98%
17:00 +5°C° 2.1 mm 1 mps 690 mmHg 97%
18:00 +5°C° 2.1 mm 1 mps 690 mmHg 96%
19:00 +3°C° 2.1 mm 2 mps 689 mmHg 95%
20:00 +4°C° 1.2 mm 2 mps 689 mmHg 95%
21:00 +4°C° 1.2 mm 2 mps 688 mmHg 95%
22:00 +4°C° 1.2 mm 2 mps 688 mmHg 95%
23:00 +4°C° 1.7 mm 2 mps 688 mmHg 95%

Day after tomorrow, 23 January, Saturday

Time Temperature Precipitation Wind Pressure Humidity
00:00 +5°C° 1.7 mm 1 mps 688 mmHg 94%
01:00 +5°C° 1.7 mm 1 mps 688 mmHg 94%
02:00 +4°C° 1.6 mm 1 mps 689 mmHg 93%
03:00 +4°C° 1.6 mm 1 mps 689 mmHg 92%
04:00 +4°C° 1.6 mm 1 mps 690 mmHg 91%
05:00 +2°C° 0.1 mm 2 mps 690 mmHg 88%
06:00 +2°C° 0.1 mm 2 mps 691 mmHg 85%
07:00 +1°C° 0.1 mm 2 mps 691 mmHg 82%
08:00 +2°C° 0 mm 2 mps 691 mmHg 79%
09:00 +2°C° 0 mm 2 mps 691 mmHg 75%
10:00 +2°C° 0 mm 2 mps 692 mmHg 72%
11:00 +3°C° 0 mm 2 mps 692 mmHg 71%
12:00 +5°C° 0 mm 1 mps 692 mmHg 70%
13:00 +5°C° 0 mm 1 mps 691 mmHg 69%
14:00 +5°C° 0 mm 1 mps 691 mmHg 71%
15:00 +5°C° 0 mm 1 mps 691 mmHg 73%
16:00 +5°C° 0 mm 1 mps 691 mmHg 76%
17:00 +3°C° 0 mm 1 mps 691 mmHg 76%
18:00 +1°C° 0 mm 2 mps 691 mmHg 77%
19:00 -1°C° 0 mm 2 mps 691 mmHg 77%
20:00 -2°C° 0 mm 2 mps 691 mmHg 76%
21:00 -2°C° 0 mm 2 mps 692 mmHg 74%
22:00 -3°C° 0 mm 2 mps 692 mmHg 73%
23:00 -3°C° 0 mm 2 mps 692 mmHg 72%

24 January, Sunday

Time Temperature Precipitation Wind Pressure Humidity
00:00 -3°C° 0 mm 2 mps 692 mmHg 70%
01:00 -4°C° 0 mm 2 mps 692 mmHg 69%
02:00 -4°C° 0 mm 2 mps 692 mmHg 68%
03:00 -4°C° 0 mm 2 mps 692 mmHg 67%
04:00 -4°C° 0 mm 2 mps 692 mmHg 66%
05:00 -4°C° 0 mm 2 mps 693 mmHg 66%
06:00 -3°C° 0 mm 2 mps 693 mmHg 66%
07:00 -3°C° 0 mm 2 mps 694 mmHg 67%
08:00 -3°C° 0 mm 2 mps 694 mmHg 65%
09:00 -2°C° 0 mm 2 mps 695 mmHg 64%
10:00 -1°C° 0 mm 2 mps 695 mmHg 62%
11:00 +1°C° 0 mm 2 mps 695 mmHg 60%
12:00 +3°C° 0 mm 2 mps 695 mmHg 58%
13:00 +5°C° 0 mm 1 mps 695 mmHg 55%
14:00 +5°C° 0 mm 1 mps 695 mmHg 58%
15:00 +4°C° 0 mm 1 mps 695 mmHg 61%
16:00 +4°C° 0 mm 1 mps 695 mmHg 64%
17:00 +2°C° 0 mm 1 mps 695 mmHg 66%
18:00 +1°C° 0 mm 1 mps 695 mmHg 69%
19:00 -1°C° 0 mm 1 mps 696 mmHg 71%
20:00 -1°C° 0 mm 1 mps 695 mmHg 70%
21:00 -1°C° 0 mm 1 mps 695 mmHg 70%
22:00 -3°C° 0 mm 2 mps 695 mmHg 69%
23:00 -4°C° 0 mm 2 mps 695 mmHg 67%

25 January, Monday

Time Temperature Precipitation Wind Pressure Humidity
00:00 -4°C° 0 mm 2 mps 695 mmHg 66%
01:00 -4°C° 0 mm 2 mps 695 mmHg 64%
02:00 -4°C° 0 mm 2 mps 696 mmHg 63%
03:00 -4°C° 0 mm 2 mps 696 mmHg 63%
04:00 -4°C° 0 mm 2 mps 697 mmHg 62%
05:00 -5°C° 0 mm 3 mps 697 mmHg 62%
06:00 -5°C° 0 mm 3 mps 698 mmHg 63%
07:00 -5°C° 0 mm 3 mps 699 mmHg 63%
08:00 -4°C° 0 mm 3 mps 700 mmHg 62%
09:00 -2°C° 0 mm 3 mps 700 mmHg 61%
10:00 -2°C° 0 mm 3 mps 701 mmHg 59%
11:00 0°C° 0 mm 3 mps 702 mmHg 55%
12:00 +1°C° 0 mm 3 mps 702 mmHg 50%
13:00 +3°C° 0 mm 2 mps 702 mmHg 46%
14:00 +3°C° 0 mm 2 mps 703 mmHg 49%
15:00 +3°C° 0 mm 2 mps 703 mmHg 52%
16:00 +2°C° 0 mm 2 mps 703 mmHg 56%
17:00 +1°C° 0 mm 2 mps 703 mmHg 59%
18:00 -2°C° 0 mm 2 mps 704 mmHg 62%
19:00 -4°C° 0 mm 3 mps 704 mmHg 65%
20:00 -5°C° 0 mm 3 mps 705 mmHg 64%
21:00 -5°C° 0 mm 3 mps 705 mmHg 62%
22:00 -6°C° 0 mm 3 mps 706 mmHg 61%
23:00 -6°C° 0 mm 3 mps 706 mmHg 61%

26 January, Tuesday

Time Temperature Precipitation Wind Pressure Humidity
00:00 -6°C° 0 mm 3 mps 706 mmHg 61%
01:00 -6°C° 0 mm 3 mps 706 mmHg 61%
02:00 -6°C° 0 mm 3 mps 706 mmHg 61%
03:00 -6°C° 0 mm 3 mps 707 mmHg 60%
04:00 -6°C° 0 mm 3 mps 707 mmHg 60%
05:00 -6°C° 0 mm 3 mps 707 mmHg 60%
06:00 -6°C° 0 mm 3 mps 707 mmHg 60%
07:00 -5°C° 0 mm 2 mps 707 mmHg 61%
08:00 -4°C° 0 mm 2 mps 707 mmHg 59%
09:00 -3°C° 0 mm 2 mps 708 mmHg 58%
10:00 -2°C° 0 mm 2 mps 708 mmHg 57%
11:00 +1°C° 0 mm 2 mps 708 mmHg 56%
12:00 +3°C° 0 mm 1 mps 708 mmHg 54%
13:00 +5°C° 0 mm 1 mps 708 mmHg 52%
14:00 +5°C° 0 mm 1 mps 708 mmHg 55%
15:00 +4°C° 0 mm 1 mps 707 mmHg 58%
16:00 +4°C° 0 mm 1 mps 707 mmHg 61%
17:00 +3°C° 0 mm 1 mps 707 mmHg 63%
18:00 -1°C° 0 mm 2 mps 707 mmHg 65%
19:00 -2°C° 0 mm 2 mps 707 mmHg 68%
20:00 -2°C° 0 mm 2 mps 708 mmHg 67%
21:00 -2°C° 0 mm 2 mps 708 mmHg 66%
22:00 -2°C° 0 mm 2 mps 708 mmHg 65%
23:00 0°C° 0 mm 1 mps 707 mmHg 65%
Show more